Location: Bucquoy
(50.1391°N, 2.7097°E)
Time: 02:58:33
(UTC+00:00)

Timation 2 Rocket - Pass Details

Date: 06 May 2021
Orbit: 907 x 1074 km, 70.0° (Epoch: 22 June)

Event Time Altitude Azimuth Distance (km) Brightness Sun altitude
Rises 03:00:51 0° 327° (NNW) 3,564 7.1 -10.7°
Reaches altitude 10° 03:03:22 10° 325° (NW) 2,609 6.4 -10.4°
Maximum altitude 03:09:19 69° 244° (WSW) 968 3.8 -9.7°
Drops below altitude 10° 03:15:15 10° 162° (SSE) 2,598 6.0 -9.0°
Sets 03:17:46 0° 160° (SSE) 3,548 6.7 -8.7°
